OPS 4682 DEB, 14047

Orbit data source: Space-Track

OPS 4682 DEB, 14047 is space debris in LEO originally from a launch on Sat, 03 Apr 1965 UTC launched from the Air Force Western Test Range (AFWTR). Debris objects in space refer to the collection of defunct objects orbiting the Earth. Examples of debris include non-operational satellites, rocket bodies, and fragments generated from explosions, collisions, or faulty payload assembly.

Loading next visibility...
Identifier
14047, 1965-027J
Orbit
LEO
Country
Flag of USUS
Related business
Manufacturer
Unknown
Mission
Spacecraft
Bus & Motor
Unknown
Mass
Unknown
Launch date (UTC)
1965-04-03 (61 years ago)
Launch vehicle
Unknown
Launch site
Air Force Western Test Range (AFWTR)
Object type
Payload
Rocket body
Debris
Shape & HBR
Unknown shape, 0.1 m
Radar Cross Section
Medium (>0.1 m² and <1 m²)

Expand to show TLE details & history
Last TLE update: 23 hours ago

TLE from 23 hours ago
0 OPS 4682 DEB
1 14047U 65027J   26207.38159833 -.00000046  00000-0 -18485-3 0  9994
2 14047  90.2393   3.8281 0032377   9.2994  18.7953 12.96658145839090
Epoch: 2026-07-26T09:09Z
TLE epoch observation values (Epoch: 2026-07-26T09:09:30.095Z)
Latitude
28.25377°
Longitude
-77.75559°
Altitude
1,255.234 km
Speed
7.241 km/s
True Right ascension
00h 14m 48s
True Declination
28° 07' 12"
Sunlit
Object was in daylight at epoch
Visualization orbit readout
Latitude
Unknown
Longitude
Unknown
Altitude
Unknown
Speed
Unknown
Apparent Right ascension
Unknown
Apparent Declination
Unknown
Sunlit
N/A
Visualization observer readout
Local Sidereal Time
21:04:27
Azimuth
Unknown
Elevation
Unknown
Doppler factor
Unknown
Orbital elements
Apogee altitude
1,297.11 km
Perigee altitude
1,247.57 km
Semi-major axis
7,650.477 km
Eccentricity
0.00324
Inclination
90.2393°
RAAN
3.8281°
Arg. of periapsis
9.2994°
True anomaly
18.9153°
Mean anomaly
18.7953°
Eccentric anomaly
18.85525°
Mean motion
3.24347 °/min
Orbital period
110.99 mins
BSTAR
-0.00018485
Loading maneuver chart data...
Computing Atmospheric mass density...
Loading historical data...
Loading historical data...
Loading historical data...
Loading historical data...
Loading historical data...
Loading historical data...
Loading historical data...

Documentation

Showing up to 5 results
|